When you browse on this site, cookies collect data to enhance your experience and personalize the content and advertising you see.
Visit our Privacy Policy to learn more. By continuing to use the site, you agree to this use of cookies and data.
  • In Hungary
  • List of Countries
  • For 7 days
  • Water Temperature
  • Weather Map
  • News
  • Weather Widgets
  • user-avatar
    Login

    Hourly Weather Abohar

    Today, 6 December, Friday

    Time Temperature Precipitation Wind Pressure Humidity
    00:00 +15°C° 0 mm 1 mps 749 mmHg 30%
    01:00 +15°C° 0 mm 1 mps 749 mmHg 32%
    02:00 +15°C° 0 mm 1 mps 749 mmHg 34%
    03:00 +14°C° 0 mm 1 mps 749 mmHg 36%
    04:00 +14°C° 0 mm 1 mps 749 mmHg 38%
    05:00 +13°C° 0 mm 1 mps 749 mmHg 46%
    06:00 +14°C° 0 mm 1 mps 749 mmHg 45%
    07:00 +15°C° 0 mm 1 mps 749 mmHg 45%
    08:00 +15°C° 0 mm 1 mps 750 mmHg 44%
    09:00 +19°C° 0 mm 1 mps 750 mmHg 37%
    10:00 +20°C° 0 mm 2 mps 750 mmHg 31%
    11:00 +24°C° 0 mm 2 mps 750 mmHg 24%
    12:00 +25°C° 0 mm 2 mps 749 mmHg 21%
    13:00 +26°C° 0 mm 2 mps 749 mmHg 18%
    14:00 +27°C° 0 mm 2 mps 748 mmHg 15%
    15:00 +25°C° 0 mm 2 mps 748 mmHg 17%
    16:00 +24°C° 0 mm 2 mps 748 mmHg 19%
    17:00 +22°C° 0 mm 1 mps 748 mmHg 20%
    18:00 +21°C° 0 mm 1 mps 748 mmHg 23%
    19:00 +19°C° 0 mm 2 mps 748 mmHg 25%
    20:00 +18°C° 0 mm 2 mps 748 mmHg 27%
    21:00 +17°C° 0 mm 2 mps 748 mmHg 28%
    22:00 +17°C° 0 mm 2 mps 748 mmHg 30%
    23:00 +16°C° 0 mm 2 mps 748 mmHg 31%

    Tomorrow, 7 December, Saturday

    Time Temperature Precipitation Wind Pressure Humidity
    00:00 +15°C° 0 mm 2 mps 748 mmHg 33%
    01:00 +15°C° 0 mm 1 mps 748 mmHg 34%
    02:00 +14°C° 0 mm 1 mps 748 mmHg 35%
    03:00 +14°C° 0 mm 1 mps 748 mmHg 36%
    04:00 +14°C° 0 mm 1 mps 748 mmHg 38%
    05:00 +13°C° 0 mm 1 mps 748 mmHg 39%
    06:00 +14°C° 0 mm 1 mps 748 mmHg 37%
    07:00 +14°C° 0 mm 1 mps 748 mmHg 36%
    08:00 +15°C° 0 mm 1 mps 749 mmHg 34%
    09:00 +19°C° 0 mm 1 mps 749 mmHg 30%
    10:00 +19°C° 0 mm 0 mps 749 mmHg 25%
    11:00 +22°C° 0 mm 0 mps 748 mmHg 21%
    12:00 +25°C° 0 mm 1 mps 748 mmHg 19%
    13:00 +25°C° 0 mm 1 mps 747 mmHg 17%
    14:00 +26°C° 0 mm 1 mps 747 mmHg 15%
    15:00 +25°C° 0 mm 1 mps 746 mmHg 17%
    16:00 +23°C° 0 mm 1 mps 746 mmHg 18%
    17:00 +22°C° 0 mm 1 mps 746 mmHg 20%
    18:00 +21°C° 0 mm 1 mps 746 mmHg 21%
    19:00 +20°C° 0 mm 1 mps 747 mmHg 22%
    20:00 +18°C° 0 mm 1 mps 747 mmHg 23%
    21:00 +18°C° 0 mm 1 mps 747 mmHg 24%
    22:00 +16°C° 0 mm 1 mps 747 mmHg 25%
    23:00 +16°C° 0 mm 1 mps 747 mmHg 26%

    Day after tomorrow, 8 December, Sunday

    Time Temperature Precipitation Wind Pressure Humidity
    00:00 +15°C° 0 mm 1 mps 747 mmHg 27%
    01:00 +15°C° 0 mm 1 mps 747 mmHg 29%
    02:00 +14°C° 0 mm 1 mps 747 mmHg 30%
    03:00 +14°C° 0 mm 1 mps 746 mmHg 31%
    04:00 +12°C° 0 mm 0 mps 746 mmHg 32%
    05:00 +12°C° 0 mm 0 mps 746 mmHg 34%
    06:00 +13°C° 0 mm 0 mps 747 mmHg 33%
    07:00 +13°C° 0 mm 0 mps 747 mmHg 32%
    08:00 +14°C° 0 mm 0 mps 748 mmHg 31%
    09:00 +17°C° 0 mm 0 mps 748 mmHg 27%
    10:00 +19°C° 0 mm 0 mps 748 mmHg 22%
    11:00 +22°C° 0 mm 0 mps 748 mmHg 18%
    12:00 +23°C° 0 mm 0 mps 748 mmHg 16%
    13:00 +23°C° 0 mm 0 mps 747 mmHg 15%
    14:00 +26°C° 0 mm 1 mps 746 mmHg 13%
    15:00 +24°C° 0 mm 1 mps 746 mmHg 14%
    16:00 +23°C° 0 mm 1 mps 746 mmHg 16%
    17:00 +21°C° 0 mm 1 mps 746 mmHg 17%
    18:00 +18°C° 0 mm 0 mps 746 mmHg 18%
    19:00 +17°C° 0 mm 0 mps 746 mmHg 19%
    20:00 +16°C° 0 mm 0 mps 747 mmHg 20%
    21:00 +16°C° 0 mm 0 mps 747 mmHg 21%
    22:00 +15°C° 0 mm 0 mps 747 mmHg 22%
    23:00 +16°C° 0 mm 1 mps 746 mmHg 22%

    9 December, Monday

    Time Temperature Precipitation Wind Pressure Humidity
    00:00 +15°C° 0 mm 1 mps 746 mmHg 23%
    01:00 +15°C° 0 mm 1 mps 746 mmHg 24%
    02:00 +14°C° 0 mm 1 mps 746 mmHg 26%
    03:00 +14°C° 0 mm 1 mps 746 mmHg 28%
    04:00 +14°C° 0 mm 1 mps 746 mmHg 29%
    05:00 +13°C° 0 mm 1 mps 746 mmHg 31%
    06:00 +14°C° 0 mm 1 mps 746 mmHg 31%
    07:00 +13°C° 0 mm 0 mps 747 mmHg 31%
    08:00 +14°C° 0 mm 0 mps 747 mmHg 31%
    09:00 +17°C° 0 mm 0 mps 748 mmHg 27%
    10:00 +19°C° 0 mm 0 mps 748 mmHg 22%
    11:00 +22°C° 0 mm 0 mps 748 mmHg 18%
    12:00 +24°C° 0 mm 1 mps 747 mmHg 16%
    13:00 +25°C° 0 mm 1 mps 747 mmHg 15%
    14:00 +26°C° 0 mm 1 mps 746 mmHg 13%
    15:00 +24°C° 0 mm 1 mps 746 mmHg 14%
    16:00 +23°C° 0 mm 1 mps 745 mmHg 15%
    17:00 +21°C° 0 mm 1 mps 745 mmHg 17%
    18:00 +20°C° 0 mm 1 mps 745 mmHg 18%
    19:00 +19°C° 0 mm 1 mps 746 mmHg 19%
    20:00 +18°C° 0 mm 1 mps 746 mmHg 20%
    21:00 +18°C° 0 mm 1 mps 746 mmHg 21%
    22:00 +16°C° 0 mm 1 mps 746 mmHg 21%
    23:00 +15°C° 0 mm 1 mps 746 mmHg 22%

    10 December, Tuesday

    Time Temperature Precipitation Wind Pressure Humidity
    00:00 +15°C° 0 mm 1 mps 746 mmHg 23%
    01:00 +15°C° 0 mm 1 mps 746 mmHg 23%
    02:00 +14°C° 0 mm 1 mps 745 mmHg 24%
    03:00 +14°C° 0 mm 1 mps 745 mmHg 24%
    04:00 +14°C° 0 mm 1 mps 745 mmHg 24%
    05:00 +13°C° 0 mm 1 mps 745 mmHg 24%
    06:00 +14°C° 0 mm 1 mps 745 mmHg 23%
    07:00 +15°C° 0 mm 1 mps 746 mmHg 22%
    08:00 +15°C° 0 mm 1 mps 746 mmHg 21%
    09:00 +19°C° 0 mm 1 mps 746 mmHg 18%
    10:00 +21°C° 0 mm 1 mps 746 mmHg 15%
    11:00 +24°C° 0 mm 1 mps 746 mmHg 12%
    12:00 +25°C° 0 mm 2 mps 745 mmHg 11%
    13:00 +26°C° 0 mm 2 mps 745 mmHg 10%
    14:00 +27°C° 0 mm 2 mps 744 mmHg 9%
    15:00 +25°C° 0 mm 2 mps 744 mmHg 11%
    16:00 +24°C° 0 mm 2 mps 743 mmHg 12%
    17:00 +22°C° 0 mm 1 mps 743 mmHg 13%
    18:00 +21°C° 0 mm 1 mps 743 mmHg 14%
    19:00 +20°C° 0 mm 1 mps 743 mmHg 15%
    20:00 +19°C° 0 mm 1 mps 744 mmHg 16%
    21:00 +19°C° 0 mm 1 mps 744 mmHg 16%
    22:00 +16°C° 0 mm 0 mps 744 mmHg 17%
    23:00 +16°C° 0 mm 0 mps 744 mmHg 18%

    11 December, Wednesday

    Time Temperature Precipitation Wind Pressure Humidity
    00:00 +16°C° 0 mm 0 mps 744 mmHg 18%
    01:00 +15°C° 0 mm 0 mps 744 mmHg 18%
    02:00 +15°C° 0 mm 0 mps 743 mmHg 18%
    03:00 +15°C° 0 mm 0 mps 743 mmHg 19%
    04:00 +14°C° 0 mm 0 mps 743 mmHg 19%
    05:00 +14°C° 0 mm 0 mps 743 mmHg 20%
    06:00 +15°C° 0 mm 0 mps 743 mmHg 20%
    07:00 +16°C° 0 mm 0 mps 744 mmHg 19%
    08:00 +17°C° 0 mm 0 mps 744 mmHg 19%
    09:00 +19°C° 0 mm 0 mps 744 mmHg 17%
    10:00 +21°C° 0 mm 0 mps 744 mmHg 15%
    11:00 +23°C° 0 mm 0 mps 745 mmHg 12%
    12:00 +25°C° 0 mm 1 mps 744 mmHg 12%
    13:00 +26°C° 0 mm 1 mps 743 mmHg 11%
    14:00 +27°C° 0 mm 1 mps 742 mmHg 11%
    15:00 +25°C° 0 mm 1 mps 742 mmHg 12%
    16:00 +24°C° 0 mm 1 mps 742 mmHg 13%
    17:00 +23°C° 0 mm 1 mps 742 mmHg 14%
    18:00 +23°C° 0 mm 2 mps 742 mmHg 15%
    19:00 +21°C° 0 mm 2 mps 742 mmHg 15%
    20:00 +20°C° 0 mm 2 mps 743 mmHg 16%
    21:00 +20°C° 0 mm 2 mps 743 mmHg 16%
    22:00 +20°C° 0 mm 2 mps 743 mmHg 16%
    23:00 +21°C° 0 mm 1 mps 743 mmHg 16%
    Show more